Simultaneous Nadir Overpasses (SNOs) Predictions

Prediction of SNOs between METOP-B and TERRA Satellite Orbit:

Table of predicted SNOs for the next 14.0 days since TLE Epoch: 3/21/2020
Index Date (METOP-B) Time (METOP-B) Lat,Lon (METOP-B) SZA (METOP-B ) Date (TERRA) Time (TERRA) Lat,Lon (TERRA) SZA (TERRA ) Distance(km) Time Diff (sec)
1 03/23/2020 19:57:46 81.31, -72.13 82.47 03/23/2020 19:58:26 81.32, -71.95 82.51 3.12 40
2 03/23/2020 20:48:26 -81.31, 95.49 97.52 03/23/2020 20:47:53 -81.31, 95.64 97.51 2.54 33
3 03/26/2020 15:32:09 81.31, -5.70 81.39 03/26/2020 15:32:40 81.31, -5.56 81.43 2.45 31
4 03/26/2020 16:22:49 -81.31, 161.92 98.59 03/26/2020 16:22:07 -81.31, 162.06 98.59 2.37 42
5 03/29/2020 11:06:32 81.31, 60.70 80.33 03/29/2020 11:06:54 81.31, 60.80 80.35 1.64 22
6 03/29/2020 11:57:12 -81.31,-131.67 99.66 03/29/2020 11:56:21 -81.31,-131.55 99.67 2.03 51
7 04/01/2020 06:40:55 81.31, 127.09 79.26 04/01/2020 06:41:08 81.30, 127.14 79.27 0.87 13
8 04/01/2020 07:31:34 -81.31, -65.27 100.72 04/01/2020 07:30:34 -81.30, -65.19 100.74 1.62 60
9 04/04/2020 02:15:16 81.31,-166.14 78.26 04/04/2020 02:15:20 81.32,-166.16 78.26 0.69 4




NCC Satellite Simultaneous Nadir Overpasses (SNOs) Prediction Service
